Location: Tamazert
(32.6352°N, 5.2072°W)
Time: 05:36:11
(UTC+00:00)

Vanguard 2 - Pass Details

Date: 10 October 2022
Orbit: 553 x 2933 km, 32.9° (Epoch: 26 November)

Event Time Altitude Azimuth Distance (km) Brightness Sun altitude
Rises 19:11:54 0° 276° (W) 6,291 14.0 -17.2°
Reaches altitude 10° 19:17:37 10° 261° (W) 5,541 13.1 -18.4°
Maximum altitude 19:28:18 20° 223° (SW) 4,935 12.0 -20.6°
Drops below altitude 10° 19:39:13 10° 183° (S) 5,589 11.9 -22.9°
Sets 19:45:11 0° 168° (SSE) 6,352 12.0 -24.2°
